OPS 4682 DEB, 38396

Orbit data source: Space-Track

OPS 4682 DEB, 38396 is space debris in LEO originally from a launch on Sat, 03 Apr 1965 UTC launched from the Air Force Western Test Range (AFWTR). Debris objects in space refer to the collection of defunct objects orbiting the Earth. Examples of debris include non-operational satellites, rocket bodies, and fragments generated from explosions, collisions, or faulty payload assembly.

Loading next visibility...
Identifier
38396, 1965-027CZ
Orbit
LEO
Country
Flag of USUS
Related business
Manufacturer
Unknown
Mission
Spacecraft
Bus & Motor
Unknown
Mass
Unknown
Launch date (UTC)
1965-04-03 (61 years ago)
Launch vehicle
Unknown
Launch site
Air Force Western Test Range (AFWTR)
Object type
Payload
Rocket body
Debris
Shape & HBR
Unknown shape, 0.1 m
Radar Cross Section
Small (<0.1 m²)

Expand to show TLE details & history
Last TLE update: 1 day ago

TLE from 1 day ago
0 OPS 4682 DEB
1 38396U 65027CZ  25348.33988987  .00000534  00000-0  18003-2 0  9992
2 38396  90.2470   7.0845 0035674 216.2360 143.6344 12.97805048639223
Epoch: 2025-12-14T08:09Z
TLE epoch observation values (Epoch: 2025-12-14T08:09:26.484Z)
Latitude
-0.00004°
Longitude
161.46993°
Altitude
1,295.59 km
Speed
7.198 km/s
True Right ascension
00h 28m 20s
True Declination
0° 00' 00"
Sunlit
Object was in daylight at epoch
Visualization orbit readout
Latitude
Unknown
Longitude
Unknown
Altitude
Unknown
Speed
Unknown
Apparent Right ascension
Unknown
Apparent Declination
Unknown
Sunlit
N/A
Visualization observer readout
Local Sidereal Time
13:24:45
Azimuth
Unknown
Elevation
Unknown
Doppler factor
Unknown
Orbital elements
Apogee altitude
1,295.105 km
Perigee altitude
1,240.553 km
Semi-major axis
7,645.966 km
Eccentricity
0.00357
Inclination
90.247°
RAAN
7.0845°
Arg. of periapsis
216.236°
True anomaly
143.87592°
Mean anomaly
143.6344°
Eccentric anomaly
143.75525°
Mean motion
3.24634 °/min
Orbital period
110.89 mins
BSTAR
0.0018003
Loading maneuver chart data...
Computing Atmospheric mass density...
Loading historical data...
Loading historical data...
Loading historical data...
Loading historical data...
Loading historical data...
Loading historical data...
Loading historical data...

Documentation

Showing up to 5 results
|